GW1174 Weather Reports


time (UTC)temp
F
wind
direction
speed
knots
gust
knots
rain 1hr
in
rain 24hr
in
rain mn
in
humidity
%
barometer
mb
20260906150017 53 101 6.1 7.8 0.00 0.20 0.20 37 1068.8
20260906145017 52 98 6.1 7.8 0.00 0.20 0.20 36 1068.1
20260906144017 51 94 6.1 7.8 0.00 0.20 0.20 36 1067.4
20260906143017 50 91 6.1 7.8 0.00 0.20 0.20 35 1066.7
20260906142017 49 87 7.0 7.8 0.00 0.20 0.20 35 1066.1
20260906141017 48 84 7.0 7.8 0.00 0.20 0.20 34 1065.4
20260906140017 48 81 7.0 7.8 0.00 0.20 0.20 33 1064.8
20260906135017 47 78 7.0 7.8 0.00 0.20 0.20 33 1064.1
20260906134017 46 74 7.0 8.7 0.00 0.20 0.20 32 1063.5
20260906133037 45 71 7.0 8.7 0.00 0.20 0.20 32 1062.9
20260906132037 44 68 7.0 8.7 0.00 0.20 0.20 31 1062.2
20260906131017 70 180 0.9 3.5 0.00 0.00 0.00 44 1026.9
20260906130017 43 62 7.0 8.7 0.00 0.20 0.20 30 1061.0
20260906125017 42 59 7.0 8.7 0.00 0.20 0.20 30 1060.5
20260906124017 41 56 7.0 8.7 0.00 0.20 0.20 29 1059.9
20260906123516 70 180 0.9 3.5 0.00 0.00 0.00 43 1027.2
20260906123037 40 53 7.8 8.7 0.00 0.20 0.20 29 1059.3
20260906122521 69 0.0 2.6 0.00 0.00 0.00 41 1027.2
20260906122037 39 51 7.8 8.7 0.00 0.20 0.20 28 1058.8
20260906121516 68 0.0 2.6 0.00 0.00 0.00 45 1027.3
20260906121017 39 48 7.8 8.7 0.00 0.20 0.20 28 1058.3
20260906120516 69 270 1.7 6.1 0.00 0.00 0.00 45 1027.5
20260906120037 38 45 7.8 9.6 0.00 0.20 0.20 28 1057.7
20260906115516 69 293 1.7 5.2 0.00 0.00 0.00 45 1027.5
20260906115037 37 43 7.8 9.6 0.00 0.20 0.20 27 1057.2
20260906114516 69 0.0 0.9 0.00 0.00 0.00 47 1027.6
20260906114017 37 40 7.8 9.6 0.00 0.20 0.20 27 1056.7
20260906113017 36 38 7.8 9.6 0.00 0.20 0.20 26 1056.3
20260906113015 67 293 0.9 3.5 0.00 0.00 0.00 47 1027.4
20260906112017 35 35 7.8 9.6 0.00 0.20 0.20 26 1055.8
20260906112015 67 293 0.9 2.6 0.00 0.00 0.00 47 1027.5
20260906111017 67 0.0 1.7 0.00 0.00 0.00 48 1027.6
20260906110018 64 90 0.9 2.6 0.00 0.00 0.00 51 1027.3
20260906105018 65 0.0 1.7 0.00 0.00 0.00 53 1027.6
20260906104037 33 27 7.8 9.6 0.00 0.20 0.20 24 1054.0
20260906104018 64 0.0 1.7 0.00 0.00 0.00 53 1027.8
20260906103017 33 25 7.8 9.6 0.00 0.20 0.20 24 1053.6
20260906102017 64 270 0.9 3.5 0.00 0.00 0.00 58 1028.0
20260906101018 64 0.0 3.5 0.00 0.00 0.00 60 1028.0
20260906100018 63 0.0 1.7 0.00 0.00 0.00 61 1028.0
20260906095018 64 0.0 1.7 0.00 0.00 0.00 60 1028.2
20260906094058 64 248 0.9 2.6 0.00 0.00 0.00 62 1028.4
20260906093037 31 14 8.7 10.4 0.00 0.20 0.20 22 1051.6
20260906093018 64 248 1.7 3.5 0.00 0.00 0.00 61 1028.4
20260906092017 31 13 8.7 10.4 0.00 0.20 0.20 22 1051.3
20260906091037 62 0.0 0.9 0.00 0.00 0.00 68 1028.2
20260906090017 62 293 0.9 3.5 0.00 0.00 0.00 68 1028.3
20260906085037 30 9 8.7 10.4 0.00 0.20 0.20 21 1050.5
20260906084017 62 293 0.9 2.6 0.00 0.00 0.00 70 1028.3
20260906083017 30 6 8.7 10.4 0.00 0.20 0.20 21 1050.0
20260906082017 61 113 0.9 5.2 0.00 0.00 0.00 71 1028.2
20260906081037 30 4 8.7 10.4 0.00 0.20 0.20 21 1049.7
20260906080017 30 4 8.7 10.4 0.00 0.20 0.20 21 1049.5
20260906075017 58 0.0 1.7 0.00 0.00 0.00 83 1027.9
20260906074057 57 270 1.7 3.5 0.00 0.00 0.00 85 1028.1
20260906073017 31 2 8.7 10.4 0.00 0.20 0.20 20 1049.1
20260906072017 55 0.0 0.0 0.00 0.00 0.00 91 1027.7
20260906071017 54 0.0 0.0 0.00 0.00 0.00 92 1027.6
20260906070017 52 0.0 0.0 0.00 0.00 0.00 93 1027.6
20260906065017 51 0.0 0.0 0.00 0.00 0.00 93 1027.4
20260906064017 49 0.0 0.0 0.00 0.00 0.00 93 1027.3
20260906063017 48 0.0 0.0 0.00 0.00 0.00 92 1027.1
20260906062017 33 0 8.7 10.4 0.00 0.20 0.20 20 1048.8
20260906061017 45 0.0 0.0 0.00 0.00 0.00 92 1026.8
20260906060017 34 0 8.7 10.4 0.00 0.20 0.20 20 1048.8
20260906055017 43 0.0 0.0 0.00 0.00 0.00 92 1026.9
20260906054017 43 0.0 0.0 0.00 0.00 0.00 91 1026.7
20260906053057 36 1 8.7 10.4 0.00 0.20 0.20 20 1049.1
20260906052019 43 0.0 0.0 0.00 0.00 0.00 91 1026.6
20260906052017 36 2 8.7 10.4 0.00 0.20 0.20 20 1049.2
20260906051017 43 0.0 0.9 0.00 0.00 0.00 91 1026.5
20260906050037 43 0.0 0.0 0.00 0.00 0.00 91 1026.6
20260906045017 43 0.0 0.0 0.00 0.00 0.00 91 1026.3
20260906044017 43 0.0 0.0 0.00 0.00 0.00 91 1026.4
20260906043017 43 0.0 0.0 0.00 0.00 0.00 91 1026.6
20260906042017 43 0.0 0.0 0.00 0.00 0.00 91 1026.4
20260906041017 41 8 8.7 10.4 0.00 0.20 0.20 21 1050.4
20260906040037 44 0.0 0.0 0.00 0.00 0.00 91 1026.4
20260906035017 44 0.0 0.0 0.00 0.00 0.00 90 1026.4
20260906034017 44 12 8.7 10.4 0.00 0.20 0.20 22 1051.1
20260906033017 45 0.0 0.0 0.00 0.00 0.00 90 1026.5
20260906032017 45 15 8.7 10.4 0.00 0.20 0.20 22 1051.7
20260906031037 45 0.0 0.9 0.00 0.00 0.00 90 1026.4
20260906030017 45 0.0 0.0 0.00 0.00 0.00 90 1026.2
20260906025016 48 20 7.8 9.6 0.00 0.20 0.20 23 1052.7
20260906024017 49 22 7.8 9.6 0.00 0.20 0.20 24 1053.1
20260906023036 45 0.0 0.0 0.00 0.03 0.00 89 1026.4
20260906022016 46 0.0 0.0 0.00 0.06 0.00 90 1026.2
20260906021017 46 0.0 0.0 0.00 0.07 0.00 89 1026.0
20260906020016 46 0.0 0.0 0.00 0.09 0.00 89 1026.1
20260906015037 46 0.0 0.0 0.00 0.09 0.00 89 1026.0
20260906014037 54 34 7.8 9.6 0.02 0.20 0.20 26 1055.6
20260906013037 46 0.0 0.0 0.00 0.09 0.00 88 1025.8
20260906012037 56 39 7.8 9.6 0.04 0.20 0.20 27 1056.5
20260906012016 46 0.0 0.0 0.00 0.09 0.00 88 1025.7
20260906011016 57 42 7.8 9.6 0.05 0.20 0.20 27 1057.0
20260906010018 47 0.0 0.0 0.00 0.09 0.00 87 1025.6
20260906005017 58 47 7.8 8.7 0.06 0.20 0.19 28 1058.0
20260906004017 59 49 7.8 8.7 0.06 0.20 0.18 28 1058.5
20260906003016 48 0.0 0.0 0.00 0.09 0.00 87 1025.5
20260906002017 61 55 7.0 8.7 0.07 0.20 0.16 29 1059.6
20260906001017 61 58 7.0 8.7 0.07 0.20 0.15 30 1060.2
20260906000037 62 61 7.0 8.7 0.07 0.20 0.14 30 1060.8
20260905235016 49 0.0 0.0 0.00 0.09 0.00 86 1025.2
20260905234018 63 67 7.0 8.7 0.07 0.20 0.12 31 1062.0
20260905234016 49 0.0 0.0 0.00 0.09 0.00 85 1025.1
20260905233017 64 70 7.0 8.7 0.06 0.20 0.10 32 1062.6
20260905232017 65 73 7.0 8.7 0.06 0.20 0.09 32 1063.2
20260905231017 65 76 7.0 7.8 0.06 0.20 0.08 33 1063.8
20260905230017 66 79 7.0 7.8 0.07 0.20 0.07 33 1064.5
20260905225017 66 83 7.0 7.8 0.06 0.20 0.06 34 1065.1
20260905224037 67 86 7.0 7.8 0.05 0.20 0.05 34 1065.8
20260905223017 67 89 7.0 7.8 0.04 0.20 0.04 35 1066.4
20260905222017 68 93 6.1 7.8 0.03 0.20 0.03 35 1067.1
20260905221017 68 96 6.1 7.8 0.02 0.20 0.02 36 1067.8
20260905220017 68 100 6.1 7.8 0.00 0.20 0.00 37 1068.5
20260905215017 53 0.0 0.0 0.00 0.09 0.09 78 1024.4
20260905214017 69 107 6.1 7.0 0.00 0.20 0.20 38 1069.9
20260905213017 69 110 6.1 7.0 0.00 0.20 0.20 38 1070.6
20260905212057 55 0.0 0.0 0.00 0.09 0.09 75 1024.2
20260905212037 69 114 6.1 7.0 0.00 0.20 0.20 39 1071.3
20260905211017 70 118 6.1 7.0 0.00 0.20 0.20 40 1072.0
20260905210017 70 121 6.1 7.0 0.00 0.20 0.20 40 1072.8
20260905205017 56 0.0 0.0 0.00 0.09 0.09 75 1024.2
20260905204017 70 129 5.2 7.0 0.00 0.20 0.20 41 1074.3
20260905203017 70 133 5.2 7.0 0.00 0.20 0.20 42 1075.0
20260905202021 56 0.0 0.0 0.00 0.09 0.09 74 1023.7
20260905202017 70 136 5.2 6.1 0.00 0.20 0.20 43 1075.8
20260905201017 57 0.0 0.0 0.00 0.09 0.09 73 1023.5
20260905200017 70 144 5.2 6.1 0.00 0.20 0.20 44 1077.3
20260905195017 57 0.0 0.0 0.00 0.09 0.09 72 1023.2
20260905194037 70 152 5.2 6.1 0.00 0.20 0.20 45 1078.8
20260905193017 69 156 5.2 6.1 0.00 0.20 0.20 46 1079.6
20260905192017 69 159 5.2 6.1 0.00 0.20 0.20 47 1080.3
20260905191017 59 0.0 0.0 0.00 0.09 0.09 68 1023.0
20260905190037 69 167 4.3 5.2 0.00 0.20 0.20 48 1081.9
20260905185037 60 0.0 0.0 0.00 0.09 0.09 67 1022.9
20260905184019 60 0.0 0.0 0.00 0.09 0.09 67 1022.8
20260905184017 68 175 4.3 5.2 0.00 0.20 0.20 49 1083.4
20260905183017 67 179 4.3 5.2 0.00 0.20 0.20 50 1084.2
20260905182016 67 183 4.3 5.2 0.00 0.20 0.20 51 1085.0
20260905181017 62 0.0 2.6 0.00 0.09 0.09 64 1022.2
20260905180017 66 191 4.3 5.2 0.00 0.20 0.20 52 1086.5
20260905175017 65 195 4.3 5.2 0.00 0.20 0.20 52 1087.3
20260905174017 65 199 3.5 4.3 0.00 0.20 0.20 53 1088.1
20260905173037 64 203 3.5 4.3 0.00 0.20 0.20 54 1088.9
20260905172017 64 206 3.5 4.3 0.00 0.20 0.20 54 1089.6
20260905171017 63 210 3.5 4.3 0.00 0.20 0.20 55 1090.4
20260905170016 67 315 4.3 10.4 0.00 0.09 0.09 55 1021.7
20260905165017 62 218 3.5 4.3 0.00 0.20 0.20 56 1091.9
20260905164037 61 222 3.5 4.3 0.00 0.20 0.20 57 1092.7
20260905163017 60 226 3.5 4.3 0.00 0.20 0.20 58 1093.4
20260905162037 59 229 3.5 3.5 0.00 0.20 0.20 58 1094.2
20260905161017 59 233 3.5 3.5 0.00 0.20 0.20 59 1094.9
20260905160017 58 237 2.6 3.5 0.00 0.20 0.20 59 1095.7
20260905155017 57 241 2.6 3.5 0.00 0.20 0.20 60 1096.4
20260905154017 56 244 2.6 3.5 0.00 0.20 0.20 61 1097.1
20260905153016 55 248 2.6 3.5 0.00 0.20 0.20 61 1097.8
20260905152058 55 252 2.6 3.5 0.00 0.20 0.20 62 1098.6
20260905152037 70 315 6.1 15.6 0.00 0.09 0.09 53 1020.6
20260905151017 54 255 2.6 3.5 0.00 0.20 0.20 63 1099.3